Volver al catálogo

FENGYUN 1C DEB

ActivoPO
NORAD 31817·DEBRIS·🇨🇳 China

Lanzado May 10, 1999 desde Taiyuan Satellite Launch Center

Loading…

Próximos Pases (próximas 24 horas)

TLE

EnvejeciendoSource: Space-Track

Época: Sep 10, 2026, 07:41 UTC

1 31817U 99025CHF 26253.32039565  .00003469  00000-0  58688-3 0  9996
2 31817  98.9158 278.7102 0056825 316.6202  43.0535 14.69050009753891

Sigue FENGYUN 1C DEB en tiempo real con AllMySat

Download on the App Store